Regional Weather Roundup
Issued by NWS

Home | Current Version | Previous Version | Graphics & Text | Print | Product List | Glossary On
Versions: 1 2 3 4 5 6 7 8 9 10 11 12 13 14 15 16 17 18 19 20 21 22 23 24 25 26 27 28 29 30 31 32 33 34 35 36 37 38 39 40 41 42 43 44 45 46 47 48 49 50
000
ASUS43 KLOT 030213
RWRIL

ILLINOIS REGIONAL WEATHER ROUNDUP
NATIONAL WEATHER SERVICE CHICAGO/ROMEOVILLE IL
900 PM CDT WED SEP 02 2015

NOTE: "FAIR" INDICATES FEW OR NO CLOUDS BELOW 12,000 FEET WITH NO
SIGNIFICANT WEATHER AND/OR OBSTRUCTIONS TO VISIBILITY.

* THESE STATIONS ARE NOT UNDER NWS QUALITY CONTROL. THEY ALSO MAY NOT
  REPORT WEATHER SUCH AS PRECIPITATION OR FOG.

ILZ001-002-007-009-015-016-024-030300-
NORTHWEST ILLINOIS

CITY           SKY/WX    TMP DP  RH WIND       PRES   REMARKS
MOLINE         CLEAR     77  69  76 CALM      29.94R
STERLING*      CLEAR     77  72  83 CALM      29.94R
SAVANNA*       CLOUDY    79  69  73 S3        29.94R HX  81
$$

ILZ003-004-008-010-011-017-018-030300-
NORTH CENTRAL ILLINOIS

CITY           SKY/WX    TMP DP  RH WIND       PRES   REMARKS
ROCKFORD       PTCLDY    76  70  82 S6        29.96R
FREEPORT*      CLOUDY    76  69  80 S7        29.97R
ROCHELLE*      PTCLDY    74  71  91 S5        29.97R
DE KALB*       MOCLDY    74  71  90 CALM      29.98R
PERU*          CLEAR     78  68  73 S5        29.97S
$$

ILZ005-006-012>014-019>023-030300-
NORTHEAST ILLINOIS

CITY           SKY/WX    TMP DP  RH WIND       PRES   REMARKS
CHICAGO-OHARE  MOCLDY    79  67  66 S8        29.96R HX  81
CHICAGO-MIDWAY MOCLDY    85  68  56 S6        29.96S HX  88
AURORA         PTCLDY    77  69  76 S5        29.97S
LANSING*       MOCLDY    76  69  79 S3        29.98R
JOLIET*        MOCLDY    75  71  87 CALM      29.97S
WAUKEGAN       MOCLDY    76  69  79 SW3       29.95R
DUPAGE AIRPORT PTCLDY    76  68  76 S3        29.96S
KANKAKEE*      MOCLDY    75  71  86 S5        29.99S
WHEELING       MOCLDY    80  66  62 S6        29.96S HX  82
MORRIS*        MOCLDY    77  71  82 CALM      29.96S
ROMEOVILLE*    MOCLDY    75  68  80 SW5       29.97S
NORTHERLY ISL    N/A     84  65  52 S5          N/A  HX  86
$$

LMZ740>746-030300-
SOUTHERN LAKE MICHIGAN

STATION/POSITION SKY/WX   TEMP    WIND        PRES    VSBY  WAVE
                          AIR SEA DIR/SP/G                  HT/PER
                          (F)     (DEG/KT/KT) (MB)    (MI)  (FT/S)
SOUTHERN BUOY              74 72  160/ 10/ 10 1013.7R         0
WILMETTE HARBOR            76 61  350/  4/  6   N/A           0
HARRISON CRIB              82     200/  8/  9   N/A
BURNHAM HARBOR             83     190/  4/  5   N/A
CALUMET HARBOR                    210/  3/  4   N/A
BURNS HARBOR               83     210/  9/ 12 1015.2R
MICHIGAN CITY              81     130/  3/  4   N/A
MICHIGAN CITY 6N           78 75  180/  4/  6   N/A           1
ST. JOSEPH                 77 75  230/  6/  6   N/A           1/ 3
$$

ILZ025>027-034>036-040-047-049-050-058-095>099-030300-
WEST-CENTRAL ILLINOIS

CITY           SKY/WX    TMP DP  RH WIND       PRES   REMARKS
QUINCY         CLEAR     79  68  69 S6        29.98R HX  81
GALESBURG*     CLEAR     76  69  80 S3        29.97R
MACOMB*        PTCLDY    75  68  78 S5        30.00R
JACKSONVILLE*  PTCLDY    78  70  75 CALM      29.99R HX  81
PITTSFIELD*    PTCLDY    78  70  77 S3        30.00S HX  80
$$

ILZ028>032-037-038-041>044-048-051>054-059>061-030300-
CENTRAL ILLINOIS

CITY           SKY/WX    TMP DP  RH WIND       PRES   REMARKS
PONTIAC        PTCLDY    75  72  92 CALM      29.99R
BLOOMINGTON    CLEAR     77  69  76 SW7       30.02R
DECATUR        CLEAR     80  68  66 S5        30.01R HX  83
PEORIA         CLEAR     80  67  64 SW5       29.98R HX  82
LACON*         CLEAR     77  70  79 CALM      29.96S
LINCOLN*       CLEAR     77  66  67 CALM      29.99R
SPRINGFIELD    CLEAR     76  66  71 CALM      30.00R
TAYLORVILLE    PTCLDY    73  70  88 S5        30.01R
$$

ILZ033-039-045-046-055>057-062-063-030300-
EAST-CENTRAL ILLINOIS

CITY           SKY/WX    TMP DP  RH WIND       PRES   REMARKS
CHAMPAIGN      CLEAR     75  69  81 S6        30.02R
RANTOUL*       PTCLDY    78  70  76 SW5       30.01R HX  81
MATTOON        HAZE      78  69  73 SW5       30.02R VSB 1/2 HX  80
PARIS*         PTCLDY    73  70  91 S5        30.03R
$$

ILZ079-100>102-030300-
SOUTHWEST ILLINOIS

CITY           SKY/WX    TMP DP  RH WIND       PRES   REMARKS
ALTON          PTCLDY    75  72  88 CALM      30.00R
BELLEVILLE     PTCLDY    79  74  86 CALM      29.99R HX  82
CAHOKIA*       PTCLDY    82  71  69 CALM      29.99R HX  86
SPARTA*        PTCLDY    78  71  79 SE3       30.02R HX  80
$$

ILZ064>066-069>071-074>076-080>082-084>086-088>090-092>094-030300-
SOUTH-CENTRAL ILLINOIS

CITY           SKY/WX    TMP DP  RH WIND       PRES   REMARKS
CARBONDALE     PTCLDY    73  71  93 CALM      30.01R
CAIRO*         CLEAR     73  73 100 CALM      30.01R
EFFINGHAM*     PTCLDY    74  69  84 CALM      30.04R
MARION         CLEAR     75  72  88 CALM      30.02S
MT. VERNON     CLEAR     73  66  78 CALM      30.03R
CENTRALIA*     PTCLDY    75  72  92 CALM      30.01R
SALEM*         PTCLDY    74  70  87 CALM      30.02R
METROPOLIS*    CLEAR     73  72  95 CALM      30.01R FOG
$$

ILZ067-068-072-073-078-083-087-091-030300-
SOUTHEAST ILLINOIS

CITY           SKY/WX    TMP DP  RH WIND       PRES   REMARKS
LAWRENCEVILLE  PTCLDY    76  70  82 CALM      30.02R
FLORA*         PTCLDY    74  68  80 CALM      30.02R
FAIRFIELD*     CLEAR     74  71  89 CALM      30.01R
HARRISBURG*    CLEAR     75  71  86 CALM      30.02R
ROBINSON*      CLEAR     72  69  93 CALM      30.03R
CARMI*         CLEAR     73  70  90 CALM      30.02R
$$

ABBREVIATIONS USED IN REMARKS
   TC - TEMPERATURE IN CELSIUS
  WCI - WIND CHILL INDEX
   HX - HEAT INDEX
  VSB - VISIBILITY
$$



USA.gov is the U.S. government's official web portal to all federal, state and local government web resources and services.